Location: Bannatyne
(13.0833°N, 59.5333°W)
Time: 06:34:00
(UTC+00:00)

Vanguard 2 Rocket - Pass Details

Date: 27 January 2020
Orbit: 554 x 3326 km, 32.9° (Epoch: 07 April)

Event Time Altitude Azimuth Distance (km) Brightness Sun altitude
Rises 12:01:20 0° 318° (NW) 3,451 9.3 20.9°
Reaches altitude 10° 12:03:52 10° 331° (NNW) 2,781 9.0 21.4°
Maximum altitude 12:09:43 28° 29° (NNE) 2,345 9.2 22.7°
Drops below altitude 10° 12:18:52 10° 83° (E) 4,463 11.4 24.7°
Sets 12:24:13 0° 93° (E) 5,991 12.1 25.8°
